Location: Nitra
(0.0000°N, 18.0833°E)
Time: 05:11:18
(UTC+01:00)

Meteor 2-8 Rocket - Pass Details

Date: 24 January 2021
Orbit: 937 x 957 km, 82.5° (Epoch: 04 March)

Event Time Altitude Azimuth Distance (km) Brightness Sun altitude
Rises 18:50:59 0° 360° (N) 3,602 7.3 -12.1°
Reaches altitude 10° 18:53:28 10° 2° (N) 2,663 6.6 -12.7°
Maximum altitude 18:59:33 74° 87° (E) 987 4.4 -14.1°
Drops below altitude 10° 19:05:40 10° 171° (S) 2,684 6.9 -15.5°
Sets 19:08:11 0° 173° (S) 3,633 7.7 -16.1°
